TimeCST,TemperatureF,Dew PointF,Humidity,Sea Level PressureIn,VisibilityMPH,Wind Direction,Wind SpeedMPH,Gust SpeedMPH,PrecipitationIn,Events,Conditions,WindDirDegrees,DateUTC
12:56 AM,42.1,33.1,70,30.22,10.0,South,13.8,-,N/A,,Clear,180,2012-11-17 06:56:00
1:56 AM,41.0,33.1,73,30.22,10.0,South,13.8,25.3,N/A,,Clear,180,2012-11-17 07:56:00
2:56 AM,41.0,33.1,73,30.21,10.0,South,15.0,-,N/A,,Clear,180,2012-11-17 08:56:00
3:56 AM,41.0,33.1,73,30.19,10.0,South,13.8,-,N/A,,Clear,180,2012-11-17 09:56:00
4:56 AM,41.0,33.1,73,30.18,10.0,South,15.0,-,N/A,,Clear,180,2012-11-17 10:56:00
5:56 AM,41.0,32.0,70,30.18,10.0,South,18.4,23.0,N/A,,Clear,170,2012-11-17 11:56:00
6:56 AM,41.0,32.0,70,30.18,10.0,South,16.1,21.9,N/A,,Clear,180,2012-11-17 12:56:00
7:56 AM,41.0,32.0,70,30.18,10.0,South,13.8,-,N/A,,Clear,180,2012-11-17 13:56:00
8:56 AM,43.0,32.0,65,30.19,10.0,South,18.4,24.2,N/A,,Clear,180,2012-11-17 14:56:00
9:56 AM,48.0,33.1,56,30.17,10.0,South,20.7,25.3,N/A,,Clear,180,2012-11-17 15:56:00
10:56 AM,50.0,33.8,54,30.14,10.0,South,20.7,28.8,N/A,,Clear,180,2012-11-17 16:56:00
11:56 AM,54.0,35.1,49,30.13,10.0,South,23.0,33.4,N/A,,Clear,190,2012-11-17 17:56:00
12:56 PM,55.9,35.1,45,30.09,10.0,South,23.0,33.4,N/A,,Clear,180,2012-11-17 18:56:00
1:56 PM,55.9,35.1,45,30.07,10.0,South,21.9,29.9,N/A,,Clear,180,2012-11-17 19:56:00
2:56 PM,57.0,36.0,45,30.06,10.0,South,19.6,28.8,N/A,,Clear,180,2012-11-17 20:56:00
3:56 PM,55.9,36.0,47,30.07,10.0,South,13.8,-,N/A,,Clear,170,2012-11-17 21:56:00
4:56 PM,55.0,36.0,49,30.07,10.0,South,12.7,-,N/A,,Clear,170,2012-11-17 22:56:00
5:56 PM,54.0,37.0,53,30.08,10.0,South,13.8,-,N/A,,Clear,170,2012-11-17 23:56:00
6:56 PM,52.0,36.0,54,30.08,10.0,South,12.7,-,N/A,,Clear,170,2012-11-18 00:56:00
7:56 PM,50.0,36.0,59,30.09,10.0,South,12.7,-,N/A,,Clear,170,2012-11-18 01:56:00
8:56 PM,50.0,35.1,57,30.08,10.0,South,15.0,23.0,N/A,,Clear,170,2012-11-18 02:56:00
9:56 PM,48.0,35.1,61,30.07,10.0,South,12.7,23.0,N/A,,Clear,180,2012-11-18 03:56:00
10:56 PM,46.9,35.1,63,30.07,10.0,South,13.8,-,N/A,,Clear,180,2012-11-18 04:56:00
11:56 PM,46.0,34.0,63,30.07,10.0,South,13.8,-,N/A,,Clear,180,2012-11-18 05:56:00